Change the Weather History Date:

Tuesday, December 18, 2012

  Actual Average Record
Temperature  
Mean Temperature 59 °F -  
Max Temperature 66 °F - - ()
Min Temperature 52 °F - - ()
Degree Days  
Heating Degree Days 6    
Growing Degree Days 9 (Base 50)    
Moisture  
Dew Point 52 °F    
Average Humidity 79    
Maximum Humidity 97    
Minimum Humidity 56    
Precipitation  
Precipitation 0.00 in - - ()
Sea Level Pressure  
Sea Level Pressure 30.01 in    
Wind  
Wind Speed 5 mph (ENE)    
Max Wind Speed 8 mph    
Max Gust Speed -    
Visibility 10 miles    
Events      
T = Trace of Precipitation, MM = Missing Value Source: NWS Daily Summary

Daily Weather History Graph

Daily Weather History Graph

Search for Another Location

Airport or City:

Trip Planner

Search our weather history database for the weather conditions in past years. The results will help you decide how hot, cold, wet, or windy it might be!

Date:

Astronomy

Dec. 18, 2012 Rise Set
Actual Time 6:46 AM CST 5:02 PM CST
Civil Twilight 6:20 AM CST 5:28 PM CST
Nautical Twilight 5:50 AM CST 5:58 PM CST
Astronomical Twilight 5:21 AM CST 6:27 PM CST
Moon 10:50 AM CST (12/18) 11:01 PM CST (12/18)
Length of Visible Light 11h 08m
Length of Day
10h 16m
Waxing Crescent, 35% of the Moon is Illuminated
Dec 18
Waxing Crescent
Dec 19
First Quarter
Dec 28
Full
Jan 4
Last Quarter
Jan 11
New

Hourly Weather History & Observations

Time (CST) Temp. Dew Point Humidity Pressure Visibility Wind Dir Wind Speed Gust Speed Precip Events Conditions
12:51 AM 57.9 °F 55.0 °F 90% 29.95 in 10.0 mi WNW 8.1 mph - N/A   Clear
1:51 AM 57.0 °F 54.0 °F 89% 29.95 in 9.0 mi West 6.9 mph - N/A   Clear
2:51 AM 55.0 °F 53.1 °F 93% 29.96 in 10.0 mi NW 5.8 mph - N/A   Clear
3:51 AM 54.0 °F 52.0 °F 93% 29.96 in 9.0 mi NW 3.5 mph - N/A   Clear
4:51 AM 52.0 °F 51.1 °F 97% 29.97 in 8.0 mi NW 4.6 mph - N/A   Clear
5:51 AM 53.1 °F 50.0 °F 89% 29.98 in 10.0 mi NNW 3.5 mph - N/A   Clear
6:51 AM 54.0 °F 48.9 °F 83% 30.01 in 10.0 mi Calm Calm - N/A   Clear
7:51 AM 57.9 °F 52.0 °F 81% 30.03 in 10.0 mi Calm Calm - N/A   Clear
8:51 AM 62.1 °F 51.1 °F 67% 30.05 in 10.0 mi Calm Calm - N/A   Clear
9:51 AM 62.1 °F 51.1 °F 67% 30.06 in 10.0 mi NE 4.6 mph - N/A   Clear
10:51 AM 64.0 °F 52.0 °F 65% 30.05 in 10.0 mi Variable 3.5 mph - N/A   Clear
11:51 AM 64.9 °F 52.0 °F 63% 30.04 in 10.0 mi NE 4.6 mph - N/A   Clear
12:51 PM 66.0 °F 50.0 °F 56% 30.01 in 10.0 mi NE 4.6 mph - N/A   Clear
1:51 PM 66.0 °F 54.0 °F 65% 30.00 in 10.0 mi NE 3.5 mph - N/A   Clear
2:51 PM 66.0 °F 52.0 °F 60% 30.00 in 10.0 mi ENE 3.5 mph - N/A   Clear
3:51 PM 64.9 °F 51.1 °F 61% 30.01 in 10.0 mi NE 3.5 mph - N/A   Clear
4:51 PM 62.1 °F 53.1 °F 72% 30.01 in 10.0 mi ENE 3.5 mph - N/A   Clear
5:51 PM 57.9 °F 53.1 °F 84% 30.02 in 10.0 mi ESE 4.6 mph - N/A   Clear
6:51 PM 57.0 °F 53.1 °F 87% 30.03 in 10.0 mi ESE 3.5 mph - N/A   Clear
7:51 PM 55.9 °F 52.0 °F 87% 30.03 in 10.0 mi ESE 3.5 mph - N/A   Clear
8:51 PM 55.0 °F 52.0 °F 89% 30.03 in 10.0 mi SE 4.6 mph - N/A   Clear
9:51 PM 54.0 °F 52.0 °F 93% 30.03 in 10.0 mi SSE 5.8 mph - N/A   Clear
10:51 PM 55.0 °F 51.1 °F 86% 30.03 in 10.0 mi ESE 4.6 mph - N/A   Clear
11:51 PM 55.9 °F 53.1 °F 90% 30.03 in 10.0 mi ESE 4.6 mph - N/A   Clear